FW1492 Weather Reports


time (UTC)temp
F
wind
direction
speed
knots
gust
knots
rain 1hr
in
rain 24hr
in
rain mn
in
humidity
%
barometer
mb
20260831014507 68 339 0.0 1.7 0.00 0.00 0.00 97 1020.8
20260831013006 69 352 0.0 0.0 0.00 0.00 0.00 96 1020.8
20260831011506 69 339 0.0 0.9 0.00 0.00 0.00 96 1020.7
20260831010005 69 20 0.0 2.6 0.00 0.00 0.00 95 1020.5
20260831004504 70 335 0.0 3.5 0.00 0.00 0.00 94 1020.4
20260831003003 70 283 0.0 2.6 0.00 0.00 0.00 94 1019.9
20260831001503 70 7 0.0 1.7 0.00 0.00 0.00 94 1019.8
20260831000002 70 291 0.0 3.5 0.00 0.00 0.00 93 1019.6
20260830234501 71 286 0.0 0.9 0.00 0.00 0.00 93 1019.4
20260830233100 71 319 0.0 1.7 0.00 0.00 0.00 93 1019.3
20260830231607 70 283 0.0 0.9 0.00 0.00 0.00 93 1019.3
20260830224602 71 316 0.0 0.0 0.00 0.00 0.00 93 1019.5
20260830223059 71 45 0.0 0.0 0.00 0.00 0.00 93 1019.5
20260830221558 71 45 0.0 1.7 0.00 0.00 0.00 92 1019.4
20260830220059 71 294 0.0 0.9 0.00 0.00 0.00 92 1019.5
20260830214601 71 336 0.0 0.9 0.00 0.00 0.00 92 1019.5
20260830213106 71 26 0.0 0.0 0.00 0.00 0.00 91 1019.6
20260830211559 72 282 0.0 0.9 0.00 0.00 0.00 90 1019.3
20260830210055 73 81 0.0 1.7 0.00 0.00 0.00 90 1019.4
20260830204554 73 283 0.0 0.0 0.00 0.00 0.00 90 1019.5
20260830203052 73 317 0.0 0.9 0.00 0.00 0.00 90 1019.5
20260830201551 73 268 0.0 0.9 0.00 0.00 0.00 89 1019.7
20260830200050 73 249 0.0 1.7 0.00 0.00 0.00 88 1019.7
20260830194547 72 202 0.0 0.9 0.00 0.00 0.00 91 1019.8
20260830193043 71 309 0.0 2.6 0.00 0.00 0.00 93 1020.1
20260830191541 70 284 0.0 2.6 0.00 0.00 0.00 95 1020.5
20260830190039 68 264 0.0 2.6 0.00 0.00 0.00 97 1020.6
20260830184541 68 229 0.0 2.6 0.00 0.00 0.00 96 1020.8
20260830183035 68 69 0.9 6.1 0.00 0.00 0.00 96 1021.0
20260830181539 67 248 0.0 1.7 0.00 0.00 0.00 96 1021.2
20260830180034 67 267 0.0 2.6 0.00 0.00 0.00 96 1021.3
20260830174532 67 250 0.0 1.7 0.00 0.00 0.00 96 1021.4
20260830173031 68 37 0.0 3.5 0.00 0.00 0.00 94 1021.6
20260830171530 68 300 0.0 1.7 0.00 0.00 0.00 92 1021.5
20260830170029 69 251 0.0 0.9 0.00 0.00 0.00 92 1021.7
20260830164529 69 229 0.0 1.7 0.00 0.00 0.00 90 1021.5
20260830163029 69 285 0.0 0.9 0.00 0.00 0.00 89 1021.4
20260830161524 70 255 0.0 1.7 0.00 0.00 0.00 87 1021.7
20260830160023 70 214 0.0 2.6 0.00 0.00 0.00 85 1021.8
20260830154522 71 202 0.0 0.9 0.00 0.00 0.00 82 1022.2
20260830153018 71 207 0.0 1.7 0.00 0.00 0.00 80 1022.3
20260830151515 70 198 0.0 1.7 0.00 0.00 0.00 80 1022.2
20260830150030 70 251 0.0 0.0 0.00 0.00 0.00 78 1022.5
20260830144515 70 252 0.0 0.0 0.00 0.00 0.00 77 1022.7
20260830143011 70 252 0.0 0.0 0.00 0.00 0.00 76 1022.7
20260830141511 70 252 0.0 0.0 0.00 0.00 0.00 75 1022.9
20260830140010 70 219 0.0 0.0 0.00 0.00 0.00 73 1022.8
20260830134506 69 220 0.0 0.0 0.00 0.00 0.00 75 1022.9
20260830133001 67 220 0.0 0.0 0.00 0.00 0.00 75 1022.9
20260830131559 66 213 0.0 0.0 0.00 0.00 0.00 77 1023.0
20260830130107 65 67 0.0 0.0 0.00 0.00 0.00 78 1023.1
20260830124551 64 67 0.0 0.9 0.00 0.00 0.00 78 1023.4
20260830123049 63 302 0.0 0.0 0.00 0.00 0.00 79 1023.6
20260830121554 63 302 0.0 0.0 0.00 0.00 0.00 79 1023.5
20260830120048 62 302 0.0 0.0 0.00 0.00 0.00 80 1023.6
20260830114603 61 302 0.0 0.0 0.00 0.00 0.00 81 1023.7
20260830113046 61 302 0.0 0.0 0.00 0.00 0.00 80 1023.9
20260830111546 61 304 0.0 0.0 0.00 0.00 0.00 81 1023.8
20260830110045 61 304 0.0 0.0 0.00 0.00 0.00 80 1023.7
20260830104545 62 304 0.0 0.0 0.00 0.00 0.00 79 1023.5
20260830103044 62 304 0.0 0.0 0.00 0.00 0.00 79 1023.6
20260830101548 62 304 0.0 0.0 0.00 0.00 0.00 79 1023.5
20260830100043 62 304 0.0 0.0 0.00 0.00 0.00 79 1023.5
20260830094543 62 305 0.0 0.0 0.00 0.00 0.00 79 1023.6
20260830093041 62 305 0.0 0.0 0.00 0.00 0.00 79 1023.6
20260830091540 63 305 0.0 0.0 0.00 0.00 0.00 78 1023.7
20260830090055 62 306 0.0 0.9 0.00 0.00 0.00 78 1023.7
20260830084538 63 308 0.0 0.0 0.00 0.00 0.00 78 1024.0
20260830083044 63 308 0.0 0.0 0.00 0.00 0.00 77 1023.9
20260830081537 63 354 0.0 0.0 0.00 0.00 0.00 77 1023.9
20260830080036 63 354 0.0 0.0 0.00 0.00 0.00 76 1023.9
20260830074536 63 354 0.0 0.0 0.00 0.00 0.00 76 1024.1
20260830073036 63 349 0.0 0.0 0.00 0.00 0.00 78 1024.0
20260830071534 62 38 0.0 0.0 0.00 0.00 0.00 79 1024.1
20260830070038 62 38 0.0 0.0 0.00 0.00 0.00 81 1024.0
20260830064534 61 38 0.0 0.0 0.00 0.00 0.00 81 1023.9
20260830063033 61 38 0.0 0.0 0.00 0.00 0.00 81 1024.0
20260830061534 61 39 0.0 0.0 0.00 0.00 0.00 80 1024.0
20260830060031 61 39 0.0 0.0 0.00 0.00 0.00 80 1024.1
20260830054533 61 38 0.0 0.0 0.00 0.00 0.00 80 1024.1
20260830053029 62 39 0.0 0.0 0.00 0.00 0.00 79 1024.0
20260830051526 62 38 0.0 0.9 0.00 0.00 0.00 78 1024.0
20260830050026 63 12 0.0 0.9 0.00 0.00 0.00 77 1023.9
20260830044529 63 12 0.0 0.0 0.00 0.00 0.00 76 1023.9
20260830043023 63 12 0.0 0.0 0.00 0.00 0.00 76 1024.0
20260830041522 63 12 0.0 0.9 0.00 0.00 0.00 77 1024.0
20260830040019 63 10 0.0 0.9 0.00 0.00 0.00 77 1023.9
20260830034532 63 354 0.0 0.9 0.00 0.00 0.00 77 1023.9
20260830033018 63 352 0.0 0.9 0.00 0.00 0.00 77 1024.0
20260830031518 63 28 0.0 0.9 0.00 0.00 0.00 78 1023.9
20260830030022 62 38 0.0 0.9 0.00 0.00 0.00 79 1023.9
20260830024520 61 349 0.0 0.0 0.00 0.00 0.00 80 1023.8
20260830023016 62 349 0.0 0.0 0.00 0.00 0.00 80 1023.8
20260830021515 62 349 0.0 0.0 0.00 0.00 0.00 79 1023.8
20260830020016 62 349 0.0 0.0 0.00 0.00 0.00 80 1023.8